Home   Weather   Resolute Bay   Past weeks

Flag for Canada Past Weather in Resolute Bay, Nunavut, Canada — Yesterday and Last 2 Weeks

Now
0 °F

Sunny.


Feels Like: -15 °F
Forecast: N/A
Wind: 8 mph from Northwest

Location: Resolute

Current Time: Apr 24, 2017 at 4:21:02 pm

Latest Report: Apr 24, 2017 at 3:00 pm


Visibility: 15 mi

Pressure: 30.25 "Hg

Humidity: 78%

Dew Point: -6 °F

Location of Resolute BayLocation

Past Weather in Resolute Bay — Graph

°F

Resolute Bay Temperature Yesterday

Maximum temperature yesterday: 5 °F (at 12:00 am)
Minimum temperature yesterday: -8 °F (at 6:00 am)
Average temperature yesterday: 0 °F

High & Low Weather Summary for the Past Weeks

 TemperatureHumidityPressure
High9 °F (Apr 9, 3:00 pm)85% (Apr 9, 6:00 pm)30.51 "Hg (Apr 9, 6:00 pm)
Low-26 °F (Apr 12, 4:00 am)55% (Apr 15, 3:00 pm)29.74 "Hg (Apr 18, 9:00 am)
Average-7 °F71%30.22 "Hg
* Reported Apr 9 3:00 pm — Apr 24 3:00 pm, Resolute Bay, Weather by CustomWeather, © 2017

Note: Actual official high and low records may vary slightly from our data, if they occured in-between our weather recording intervals... More about our weather records

Advertising

Resolute Bay Weather History for the Previous 24 Hours

Scroll right to see more
 ConditionsComfort  
Time TempWeatherWind HumidityBarometerVisibility
3:00 pm
Mon, Apr 24
0 °FSunny.8 mph78%30.25 "Hg15 mi
2:00 pm1 °FSunny.9 mph71%30.25 "Hg15 mi
1:00 pm0 °FSunny.9 mph78%30.26 "Hg15 mi
12:00 pm0 °FSunny.9 mph78%30.27 "Hg15 mi
11:00 am0 °FSunny.10 mph78%30.28 "Hg15 mi
10:00 am0 °FSunny.12 mph78%30.29 "Hg15 mi
9:00 am-2 °FPassing clouds.12 mph77%30.29 "Hg15 mi
8:00 am-4 °FSunny.10 mph77%30.30 "Hg15 mi
7:00 am-4 °FSunny.10 mph77%30.30 "Hg15 mi
6:00 am-8 °FSunny.10 mph77%30.30 "Hg15 mi
5:00 am-8 °FSunny.10 mph77%30.31 "Hg15 mi
4:00 am-9 °FSunny.10 mph84%30.31 "Hg15 mi
3:00 am-9 °FClear.9 mph77%30.32 "Hg15 mi
2:00 am-8 °FClear.7 mph77%30.32 "Hg15 mi
1:00 am-4 °FClear.3 mph77%30.32 "Hg15 mi
12:00 am-4 °FClear.No wind84%30.32 "Hg15 mi
11:00 pm
Sun, Apr 23
0 °FSunny.No wind78%30.32 "Hg15 mi
10:00 pm-4 °FSunny.2 mph77%30.32 "Hg15 mi
9:00 pm0 °FPassing clouds.No wind71%30.33 "Hg15 mi
8:00 pm0 °FPassing clouds.3 mph78%30.34 "Hg15 mi
7:00 pm0 °FPassing clouds.5 mph78%30.34 "Hg15 mi
6:00 pm1 °FPassing clouds.7 mph71%30.34 "Hg15 mi
5:00 pm3 °FPartly sunny.10 mph72%30.34 "Hg15 mi
4:00 pm1 °FPartly sunny.6 mph71%30.34 "Hg15 mi
Weather by CustomWeather, © 2017

See weather overviewHow to use our weather pages